Location: Hochstatterhof
(48.7256°N, 10.3487°E)
Time: 01:48:48
(UTC+00:00)

Cosmos 2026 Rocket - Pass Details

Date: 26 September 2023
Orbit: 940 x 999 km, 82.9° (Epoch: 04 December)

Event Time Altitude Azimuth Distance (km) Brightness Sun altitude
Exits shadow 02:41:53 41° 290° (WNW) 1,360 4.4 -24.3°
Drops below altitude 10° 02:47:35 10° 358° (N) 2,688 6.6 -23.5°
Sets 02:50:14 0° 5° (N) 3,630 7.4 -23.1°
